P/2006 XG16 ( Spacewatch )

Japanese version
Home page
Updated on August 10, 2007

---------------------------------------------------------------------

* Profile

Discovery Date December 10, 2006
Magnitude
Discoverer Spacewatch

* Pictures

* Orbital Elements

The following orbital elements are taken from MPC 59875:

Epoch 2007 Mar. 1.0 TT = JDT 2454160.5
T 2007 Feb.  9.9505 TT                                  MPC
q   2.102210             (2000.0)            P               Q
n   0.1424741      Peri.   41.3073      -0.4882863      -0.8588831
a   3.630604       Node    78.4540      +0.7535215      -0.5042979
e   0.420975       Incl.    9.0779      +0.4402066      -0.0894615
P   6.92
From 81 observations 2006 Nov. 15-2007 Apr. 14, mean residual 0".5.

* Magnitudes Graph

        m1 = 14.5 + 5 log d + 10.0 log r

---------------------------------------------------------------------

The orbital elements are published at the MPC Ephemerides and Orbital Elements.
The magnitudes graphs are made with Comet for Windows.

---------------------------------------------------------------------

Copyright(C) Seiichi Yoshida (comet@aerith.net). All rights reserved.